When you browse on this site, cookies collect data to enhance your experience and personalize the content and advertising you see.
Visit our Privacy Policy to learn more. By continuing to use the site, you agree to this use of cookies and data.
  • în România
  • Lista ţărilor
  • Pe 7 zile
  • Temperatura apei
  • Hartă satelitară
  • Meteo pe hartă
  • Widget-uri
  • user-avatar
    Intrare

    Meteo pe oră la Eisenstadt

    Astăzi, 16 Iunie, Duminică

    Timp Temperatura Precipitaţii Vânt Presiune Umiditate
    00:00 +21°C° 0.1 mm 2 m/s 721 mmHg 78%
    01:00 +20°C° 0.1 mm 2 m/s 721 mmHg 79%
    02:00 +19°C° 0.3 mm 2 m/s 721 mmHg 82%
    03:00 +19°C° 0.3 mm 2 m/s 721 mmHg 85%
    04:00 +18°C° 0.3 mm 3 m/s 720 mmHg 88%
    05:00 +19°C° 0.4 mm 3 m/s 721 mmHg 86%
    06:00 +20°C° 0.4 mm 3 m/s 722 mmHg 84%
    07:00 +21°C° 0.4 mm 3 m/s 722 mmHg 81%
    08:00 +22°C° 0.1 mm 4 m/s 722 mmHg 75%
    09:00 +25°C° 0.1 mm 4 m/s 723 mmHg 69%
    10:00 +26°C° 0.1 mm 4 m/s 723 mmHg 63%
    11:00 +26°C° 0.2 mm 5 m/s 723 mmHg 61%
    12:00 +27°C° 0.2 mm 5 m/s 723 mmHg 59%
    13:00 +27°C° 0.2 mm 5 m/s 724 mmHg 58%
    14:00 +27°C° 0.3 mm 6 m/s 723 mmHg 60%
    15:00 +26°C° 0.3 mm 6 m/s 723 mmHg 62%
    16:00 +24°C° 0.3 mm 7 m/s 723 mmHg 64%
    17:00 +22°C° 0.1 mm 6 m/s 723 mmHg 69%
    18:00 +21°C° 0.1 mm 6 m/s 723 mmHg 74%
    19:00 +20°C° 0.1 mm 5 m/s 723 mmHg 78%
    20:00 +19°C° 0 mm 5 m/s 724 mmHg 79%
    21:00 +19°C° 0 mm 5 m/s 724 mmHg 80%
    22:00 +17°C° 0 mm 5 m/s 724 mmHg 81%
    23:00 +17°C° 0 mm 5 m/s 724 mmHg 80%

    Mâine, 17 Iunie, Luni

    Timp Temperatura Precipitaţii Vânt Presiune Umiditate
    00:00 +17°C° 0 mm 5 m/s 724 mmHg 80%
    01:00 +17°C° 0 mm 5 m/s 724 mmHg 80%
    02:00 +16°C° 0 mm 5 m/s 724 mmHg 79%
    03:00 +16°C° 0 mm 5 m/s 724 mmHg 78%
    04:00 +16°C° 0 mm 5 m/s 724 mmHg 77%
    05:00 +17°C° 0 mm 5 m/s 724 mmHg 73%
    06:00 +19°C° 0 mm 5 m/s 725 mmHg 69%
    07:00 +19°C° 0 mm 5 m/s 725 mmHg 64%
    08:00 +21°C° 0 mm 5 m/s 725 mmHg 61%
    09:00 +22°C° 0 mm 6 m/s 725 mmHg 58%
    10:00 +23°C° 0 mm 6 m/s 725 mmHg 55%
    11:00 +23°C° 0 mm 5 m/s 725 mmHg 54%
    12:00 +25°C° 0 mm 5 m/s 725 mmHg 54%
    13:00 +26°C° 0 mm 5 m/s 724 mmHg 53%
    14:00 +25°C° 0 mm 5 m/s 724 mmHg 54%
    15:00 +25°C° 0 mm 5 m/s 724 mmHg 55%
    16:00 +25°C° 0 mm 4 m/s 723 mmHg 56%
    17:00 +23°C° 0 mm 4 m/s 723 mmHg 60%
    18:00 +22°C° 0 mm 4 m/s 723 mmHg 65%
    19:00 +21°C° 0 mm 3 m/s 723 mmHg 69%
    20:00 +20°C° 0 mm 3 m/s 723 mmHg 70%
    21:00 +19°C° 0 mm 3 m/s 723 mmHg 71%
    22:00 +18°C° 0 mm 2 m/s 723 mmHg 71%
    23:00 +17°C° 0.2 mm 2 m/s 723 mmHg 75%

    Poimâine, 18 Iunie, Marţi

    Timp Temperatura Precipitaţii Vânt Presiune Umiditate
    00:00 +17°C° 0.2 mm 2 m/s 723 mmHg 78%
    01:00 +16°C° 0.2 mm 2 m/s 723 mmHg 82%
    02:00 +16°C° 0.3 mm 2 m/s 722 mmHg 83%
    03:00 +16°C° 0.3 mm 1 m/s 722 mmHg 84%
    04:00 +16°C° 0.3 mm 1 m/s 722 mmHg 85%
    05:00 +18°C° 0 mm 1 m/s 722 mmHg 84%
    06:00 +19°C° 0 mm 1 m/s 723 mmHg 83%
    07:00 +20°C° 0 mm 1 m/s 723 mmHg 82%
    08:00 +21°C° 0.1 mm 1 m/s 723 mmHg 79%
    09:00 +22°C° 0.1 mm 1 m/s 723 mmHg 75%
    10:00 +23°C° 0.1 mm 1 m/s 723 mmHg 72%
    11:00 +24°C° 0.4 mm 1 m/s 723 mmHg 73%
    12:00 +24°C° 0.4 mm 1 m/s 723 mmHg 73%
    13:00 +25°C° 0.4 mm 1 m/s 722 mmHg 74%
    14:00 +25°C° 0.7 mm 1 m/s 722 mmHg 72%
    15:00 +26°C° 0.7 mm 1 m/s 722 mmHg 71%
    16:00 +26°C° 0.7 mm 1 m/s 721 mmHg 69%
    17:00 +25°C° 1.1 mm 1 m/s 721 mmHg 75%
    18:00 +24°C° 1.1 mm 1 m/s 721 mmHg 81%
    19:00 +22°C° 1.1 mm 1 m/s 721 mmHg 87%
    20:00 +21°C° 0.1 mm 1 m/s 721 mmHg 88%
    21:00 +20°C° 0.1 mm 1 m/s 721 mmHg 89%
    22:00 +19°C° 0.1 mm 1 m/s 721 mmHg 90%
    23:00 +19°C° 0 mm 1 m/s 721 mmHg 90%

    19 Iunie, Miercuri

    Timp Temperatura Precipitaţii Vânt Presiune Umiditate
    00:00 +19°C° 0 mm 1 m/s 721 mmHg 90%
    01:00 +19°C° 0 mm 1 m/s 721 mmHg 91%
    02:00 +19°C° 0 mm 1 m/s 721 mmHg 91%
    03:00 +18°C° 0 mm 1 m/s 721 mmHg 91%
    04:00 +16°C° 0 mm 0 m/s 720 mmHg 91%
    05:00 +18°C° 0 mm 0 m/s 721 mmHg 87%
    06:00 +19°C° 0 mm 0 m/s 721 mmHg 84%
    07:00 +20°C° 0 mm 0 m/s 721 mmHg 81%
    08:00 +22°C° 0.7 mm 0 m/s 721 mmHg 78%
    09:00 +25°C° 0.7 mm 1 m/s 721 mmHg 75%
    10:00 +26°C° 0.7 mm 1 m/s 721 mmHg 72%
    11:00 +27°C° 1.4 mm 1 m/s 721 mmHg 69%
    12:00 +27°C° 1.4 mm 1 m/s 721 mmHg 67%
    13:00 +28°C° 1.4 mm 1 m/s 720 mmHg 64%
    14:00 +28°C° 1.7 mm 1 m/s 720 mmHg 65%
    15:00 +27°C° 1.7 mm 1 m/s 720 mmHg 67%
    16:00 +27°C° 1.7 mm 1 m/s 719 mmHg 68%
    17:00 +24°C° 0.5 mm 0 m/s 719 mmHg 72%
    18:00 +23°C° 0.5 mm 0 m/s 719 mmHg 76%
    19:00 +22°C° 0.5 mm 0 m/s 719 mmHg 80%
    20:00 +23°C° 0.4 mm 1 m/s 719 mmHg 82%
    21:00 +22°C° 0.4 mm 1 m/s 720 mmHg 84%
    22:00 +20°C° 0.4 mm 1 m/s 720 mmHg 86%
    23:00 +20°C° 0 mm 1 m/s 720 mmHg 86%

    20 Iunie, Joi

    Timp Temperatura Precipitaţii Vânt Presiune Umiditate
    00:00 +20°C° 0 mm 1 m/s 719 mmHg 86%
    01:00 +20°C° 0 mm 1 m/s 719 mmHg 86%
    02:00 +19°C° 0 mm 1 m/s 719 mmHg 85%
    03:00 +19°C° 0 mm 1 m/s 719 mmHg 85%
    04:00 +19°C° 0 mm 1 m/s 719 mmHg 84%
    05:00 +20°C° 0.3 mm 1 m/s 720 mmHg 82%
    06:00 +22°C° 0.3 mm 1 m/s 720 mmHg 80%
    07:00 +21°C° 0.3 mm 0 m/s 721 mmHg 79%
    08:00 +25°C° 0.6 mm 1 m/s 721 mmHg 72%
    09:00 +27°C° 0.6 mm 1 m/s 721 mmHg 65%
    10:00 +28°C° 0.6 mm 1 m/s 721 mmHg 59%
    11:00 +29°C° 0 mm 1 m/s 721 mmHg 54%
    12:00 +30°C° 0 mm 1 m/s 721 mmHg 49%
    13:00 +31°C° 0 mm 2 m/s 721 mmHg 44%
    14:00 +30°C° 0.2 mm 2 m/s 721 mmHg 49%
    15:00 +29°C° 0.2 mm 2 m/s 721 mmHg 55%
    16:00 +28°C° 0.2 mm 2 m/s 720 mmHg 61%
    17:00 +27°C° 1.3 mm 2 m/s 720 mmHg 68%
    18:00 +25°C° 1.3 mm 2 m/s 720 mmHg 75%
    19:00 +23°C° 1.3 mm 1 m/s 720 mmHg 83%
    20:00 +22°C° 0.1 mm 1 m/s 721 mmHg 83%
    21:00 +21°C° 0.1 mm 1 m/s 721 mmHg 84%
    22:00 +20°C° 0.1 mm 1 m/s 721 mmHg 84%
    23:00 +20°C° 0 mm 1 m/s 721 mmHg 83%

    21 Iunie, Vineri

    Timp Temperatura Precipitaţii Vânt Presiune Umiditate
    00:00 +20°C° 0 mm 1 m/s 721 mmHg 83%
    01:00 +20°C° 0 mm 1 m/s 721 mmHg 82%
    02:00 +20°C° 0 mm 1 m/s 721 mmHg 83%
    03:00 +19°C° 0 mm 1 m/s 721 mmHg 83%
    04:00 +19°C° 0 mm 1 m/s 721 mmHg 83%
    05:00 +21°C° 0 mm 1 m/s 721 mmHg 82%
    06:00 +22°C° 0 mm 1 m/s 721 mmHg 80%
    07:00 +21°C° 0 mm 0 m/s 721 mmHg 78%
    08:00 +25°C° 0 mm 1 m/s 721 mmHg 72%
    09:00 +27°C° 0 mm 2 m/s 721 mmHg 65%
    10:00 +28°C° 0 mm 2 m/s 721 mmHg 58%
    11:00 +29°C° 0.2 mm 3 m/s 721 mmHg 58%
    12:00 +29°C° 0.2 mm 3 m/s 721 mmHg 57%
    13:00 +30°C° 0.2 mm 3 m/s 721 mmHg 57%
    14:00 +30°C° 0.1 mm 3 m/s 721 mmHg 55%
    15:00 +30°C° 0.1 mm 3 m/s 720 mmHg 54%
    16:00 +30°C° 0.1 mm 2 m/s 720 mmHg 52%
    17:00 +28°C° 0.4 mm 2 m/s 720 mmHg 61%
    18:00 +26°C° 0.4 mm 2 m/s 720 mmHg 70%
    19:00 +24°C° 0.4 mm 2 m/s 720 mmHg 78%
    20:00 +23°C° 0.3 mm 2 m/s 720 mmHg 81%
    21:00 +21°C° 0.3 mm 2 m/s 721 mmHg 83%
    22:00 +20°C° 0.3 mm 2 m/s 721 mmHg 85%
    23:00 +19°C° 0 mm 2 m/s 721 mmHg 86%
    Arată mai mult